{"data":{"norad_id":56148,"intl_designator":"2023-046BJ","name":"STARLINK-5089","alt_names":[],"object_type":"PAYLOAD","status":"ACTIVE","operator":null,"country":"US","launch_date":"2023-03-29","launch_site_code":"AFETR","launch_vehicle":null,"mission":null,"orbit_class":"UNKNOWN","rcs_meters":null,"size_class":null,"mass_kg":null,"dimensions":null,"purposes":["comms"],"wikipedia_slug":null,"has_3d_model":false,"image_url":null,"decayed_at":null,"tle_current":{"epoch":"2026-05-25T03:16:18.021216Z","epoch_age_seconds":66778,"freshness":"FRESH","line1":"1 56148U 23046BJ  26145.13631969  .00000408  00000+0  24337-4 0  9999","line2":"2 56148  43.0020  38.5611 0000777 262.5626  97.5138 15.27576003174314","mean_motion":15.27576003,"eccentricity":7.77e-5,"inclination_deg":43.002,"raan_deg":38.5611,"arg_perigee_deg":262.5626,"mean_anomaly_deg":97.5138,"bstar":2.4337e-5,"rev_number":17431,"period_min":94.266995368609,"perigee_km":482.52794943205,"apogee_km":483.59417961128,"semimajor_km":6861.1980645217,"source":"CELESTRAK","updated_at":"2026-05-25T13:38:17.963987Z"}}}